OSCAR 7 (AO-7) 1 07530U 74089B 26126.96930691 -.00000050 00000+0 -19435-4 0 9995 2 07530 101.9922 139.7837 0012068 208.2219 222.1707 12.53697398355355 PHASE 3B (AO-10) 1 14129U 83058B 26126.60850359 -.00000030 00000+0 00000+0 0 9996 2 14129 25.8942 226.4844 6025498 104.2092 326.1286 2.05870200294637 UOSAT 2 (UO-11) 1 14781U 84021B 26126.87386419 .00001155 00000+0 12340-3 0 9993 2 14781 97.8031 92.9210 0006775 331.7185 28.3664 14.90686366250978 LUSAT (LO-19) 1 20442U 90005G 26126.94849870 .00000108 00000+0 55293-4 0 9998 2 20442 98.8876 147.6130 0010995 332.3748 27.6851 14.34110217896484 EYESAT A (AO-27) 1 22825U 93061C 26126.74459964 .00000098 00000+0 54324-4 0 9991 2 22825 98.6894 194.1688 0007704 215.4786 144.5885 14.30931000701074 ITAMSAT (IO-26) 1 22826U 93061D 26126.73634807 .00000100 00000+0 54754-4 0 9993 2 22826 98.6843 194.0739 0008530 198.1919 161.8960 14.31356723701382 RADIO ROSTO (RS15) 1 23439U 94085A 26126.96424777 -.00000037 00000+0 15555-3 0 9994 2 23439 64.8207 9.8867 0154797 11.4026 349.0342 11.27583837291254 JAS-2 (FO-29) 1 24278U 96046B 26126.31526696 -.00000038 00000+0 -16652-5 0 9990 2 24278 98.5286 340.9120 0349409 204.9476 153.4419 13.53272324467504 TECHSAT 1B (GO-32) 1 25397U 98043D 26126.97211786 .00000059 00000+0 45693-4 0 9992 2 25397 99.0063 118.6940 0001312 24.9613 335.1628 14.24420255445466 ISS (ZARYA) 1 25544U 98067A 26126.84466763 .00005913 00000+0 11489-3 0 9994 2 25544 51.6305 144.7453 0007432 30.9733 329.1692 15.49124105565348 PCSAT (NO-44) 1 26931U 01043C 26126.95029622 .00000105 00000+0 70199-4 0 9996 2 26931 67.0520 350.9298 0006346 263.7647 96.2732 14.31940052284544 SAUDISAT 1C (SO-50) 1 27607U 02058C 26126.75054817 .00001267 00000+0 16651-3 0 9998 2 27607 64.5522 257.1785 0075639 270.0231 89.2208 14.82959317258315 CUTE-1 (CO-55) 1 27844U 03031E 26126.94171881 .00000268 00000+0 13492-3 0 9995 2 27844 98.6750 136.0181 0008555 310.3751 49.6680 14.24310032185800 CUBESAT XI-IV (CO-57) 1 27848U 03031J 26126.97982924 .00000220 00000+0 11591-3 0 9996 2 27848 98.6782 135.8017 0008787 330.5693 29.4990 14.23598617185514 MOZHAETS 4 (RS22) 1 27939U 03042A 26127.00181273 .00001085 00000+0 17559-3 0 9992 2 27939 98.3467 310.1996 0012215 43.9548 74.3849 14.73396207209482 CUBESAT XI-V 1 28895U 05043F 26126.88576346 .00001304 00000+0 21343-3 0 9991 2 28895 98.2941 281.6544 0013518 341.7038 18.3681 14.72523641 95670 CUTE-1.7+APD II (CO-65) 1 32785U 08021C 26126.94391278 .00004458 00000+0 28544-3 0 9992 2 32785 97.8271 107.5241 0009541 158.2091 201.9545 15.09068463978974 SEEDS II (CO-66) 1 32791U 08021J 26126.92124165 .00014879 00000+0 49333-3 0 9993 2 32791 97.7531 122.8988 0005114 96.0537 264.1286 15.31363501980975 YUBILEINY (RS30) 1 32953U 08025A 26126.97416866 .00000007 00000+0 -24053-4 0 9996 2 32953 82.5075 21.0756 0020481 42.9622 317.3053 12.43177809814571 KKS-1 (KISEKI) 1 33499U 09002H 26126.89824444 .00001310 00000+0 16793-3 0 9992 2 33499 98.1192 48.6898 0009268 67.9587 292.2609 14.83017222930079 SWISSCUBE 1 35932U 09051B 26126.70651721 .00001047 00000+0 21669-3 0 9991 2 35932 98.4059 33.8701 0006668 353.9874 6.1246 14.62401470883092 BEESAT-1 1 35933U 09051C 26126.28381864 .00000859 00000+0 18256-3 0 9991 2 35933 98.3988 33.1625 0005531 12.6174 347.5164 14.61651657883062 ITUPSAT1 1 35935U 09051E 26126.99178540 .00000726 00000+0 16019-3 0 9994 2 35935 98.4074 33.1167 0007874 16.4585 343.6869 14.60378140882725 XIWANG-1 (HOPE-1) 1 36122U 09072B 26126.97636196 .00000168 00000+0 55731-3 0 9994 2 36122 100.4009 81.4730 0007287 333.2795 26.7942 13.16439396787589 O/OREOS (USA 219) 1 37224U 10062C 26126.53837969 .00001900 00000+0 18569-3 0 9995 2 37224 71.9698 174.6668 0013428 153.1439 207.0430 14.93576111110424 JUGNU 1 37839U 11058B 26126.44976612 .00000429 00000+0 84360-4 0 9990 2 37839 19.9597 201.9963 0018571 336.1383 121.6989 14.13764438753115 SRMSAT 1 37841U 11058D 26126.65604024 .00000420 00000+0 84320-4 0 9998 2 37841 19.9732 310.8519 0011779 106.9854 320.2524 14.11566398751949 STRAND-1 1 39090U 13009E 26125.44711693 .00000308 00000+0 11814-3 0 9993 2 39090 98.3915 306.7356 0008675 7.2867 352.8445 14.37138110690920 ZACUBE-1 (TSHEPISOSAT) 1 39417U 13066B 26126.87663206 .00004435 00000+0 34686-3 0 9990 2 39417 97.8129 88.9908 0042765 32.0759 328.3054 15.00867990674539 GOMX-1 1 39430U 13066Q 26126.91843917 .00001945 00000+0 29840-3 0 9998 2 39430 97.6510 329.9825 0128071 209.5051 149.8887 14.69301978663859 CUBEBUG-2 (LO-74) 1 39440U 13066AA 26126.86182620 .00003161 00000+0 29638-3 0 9997 2 39440 97.8883 75.6839 0058431 162.8596 197.4615 14.93461342670824 FUNCUBE-1 (AO-73) 1 39444U 13066AE 26126.88338251 .00006769 00000+0 42653-3 0 9995 2 39444 97.8255 97.4912 0036124 347.3050 12.7265 15.08950319673439 UWE-3 1 39446U 13066AG 26126.83645982 .00004017 00000+0 34791-3 0 9992 2 39446 97.8689 82.6523 0051329 97.1541 263.5520 14.96690140671397 UNISAT-6 1 40012U 14033C 26126.84759609 .00003300 00000+0 35899-3 0 9995 2 40012 97.7836 280.3063 0044747 203.0419 156.8791 14.88007358640018 DUCHIFAT-1 1 40021U 14033M 26126.92279679 .00061694 00000+0 83128-3 0 9996 2 40021 98.0511 180.5445 0005390 203.5588 156.5420 15.57621953649318 QB50P1 1 40025U 14033R 26126.94952031 .00007222 00000+0 36237-3 0 9998 2 40025 98.0987 135.2245 0009047 19.2971 340.8601 15.17628400646771 LILACSAT-2 1 40908U 15049K 26126.97431142 .00014479 00000+0 25868-3 0 9994 2 40908 97.4701 162.2821 0008208 55.7144 304.4884 15.50106137589368 FOX-1A (AO-85) 1 40967U 15058D 26126.89696463 .00003178 00000+0 29081-3 0 9994 2 40967 64.7766 47.2752 0128764 72.7833 288.7326 14.90726315107416 CAS-2T & KS-1Q 1 41847U 16066G 26126.95893872 .00000685 00000+0 10642-3 0 9995 2 41847 98.3826 203.1611 0340906 254.6079 101.7214 14.44583511498846 RADFXSAT (FOX-1B) 1 43017U 17073E 26126.59037917 .00008608 00000+0 37858-3 0 9996 2 43017 97.4753 354.6715 0154086 112.0262 249.7417 15.11964808459107 DIWATA-2B 1 43678U 18084H 26126.95393243 .00003084 00000+0 25125-3 0 9996 2 43678 98.1081 321.3998 0012426 313.5107 46.5082 15.00251293410038 ES'HAIL 2 1 43700U 18090A 26126.90906307 .00000152 00000+0 00000+0 0 9999 2 43700 0.0108 274.7220 0001651 160.4593 142.6565 1.00272145 27268 FOX-1CLIFF (AO-95) 1 43770U 18099N 26126.90426244 .00009206 00000+0 36210-3 0 9997 2 43770 97.4406 187.3264 0010302 129.2870 230.9283 15.25828170406926 ITASAT 1 43786U 18099AE 26126.58014082 .00005971 00000+0 29178-3 0 9991 2 43786 97.4056 178.9325 0014061 133.7507 226.4894 15.18525231406596 JY1SAT (JO-97) 1 43803U 18099AX 26126.12327009 .00017744 00000+0 56955-3 0 9991 2 43803 97.4153 188.8507 0006925 70.9167 289.2824 15.32346816407182 UWE-4 1 43880U 18111E 26126.75842828 .00026522 00000+0 58830-3 0 9999 2 43880 97.5861 53.3277 0010661 109.4077 250.8323 15.43656146404383 TIANYAN 01 1 44881U 19093C 26126.98299841 .00000798 00000+0 96245-4 0 9997 2 44881 97.7539 200.2187 0012445 217.9228 142.1112 14.86453875345290 RS-44 & BREEZE-KM R/B 1 44909U 19096E 26126.41261569 .00000023 00000+0 52284-4 0 9991 2 44909 82.5249 7.4674 0216485 241.9477 115.9582 12.79748118297003 SALSAT 1 46495U 20068K 26126.92876227 .00006820 00000+0 24320-3 0 9993 2 46495 97.8866 127.5035 0011680 88.8107 271.4470 15.29197943309057 XW-3 (CAS-9) 1 50466U 21131B 26126.95784222 .00000425 00000+0 14496-3 0 9992 2 50466 98.4956 219.5756 0003433 206.5290 153.5724 14.41317786229176 GREENCUBE (IO-117) 1 53109U 22080E 26125.85119694 -.00000003 00000+0 00000+0 0 9991 2 53109 70.1444 312.9759 0008857 299.6529 60.3249 6.42583318 89344 UMKA 1 (RS40S) 1 57172U 23091G 26126.96448148 .00005168 00000+0 24031-3 0 9990 2 57172 97.5073 185.8292 0011256 261.5524 98.4435 15.20355673157744 CUBESX-HSE 3 (RS42S) 1 57178U 23091N 26126.92319207 .00010358 00000+0 35659-3 0 9990 2 57178 97.5109 192.0189 0009896 231.9702 128.0646 15.30196153158114 MONITOR-3 (RS58S) 1 57180U 23091Q 26126.92517502 .00008677 00000+0 32941-3 0 9993 2 57180 97.5102 190.0905 0010588 240.1676 119.8510 15.27029125157999 MONITOR-4 (RS57S) 1 57182U 23091S 26126.90680400 .00008517 00000+0 32247-3 0 9993 2 57182 97.5096 190.0403 0010544 240.6209 119.3977 15.27126506157998 MONITOR-2 (RS39S) 1 57184U 23091U 26126.93529838 .00004073 00000+0 20041-3 0 9997 2 57184 97.5097 185.4907 0009739 253.1915 106.8251 15.18533874157698 SVYATOBOR 1 (RS60S) 1 57187U 23091X 26126.95156401 .00006920 00000+0 27238-3 0 9992 2 57187 97.5108 190.5586 0008419 230.1185 129.9313 15.25924326158029 VIZARD-METEO (RS38S) 1 57189U 23091Z 26126.95715996 .00013118 00000+0 39142-3 0 9998 2 57189 97.5105 195.6558 0007078 205.9173 154.1717 15.34744290158365 POLYTECH-UNIVERSE 3 (R*) 1 57191U 23091AB 26126.96788912 .00004519 00000+0 22046-3 0 9990 2 57191 97.5071 185.0282 0013932 272.5304 87.4335 15.18731722157696 UTMN 2 (RS27S) 1 57203U 23091AP 26126.89841650 .00009534 00000+0 32006-3 0 9994 2 57203 97.5103 193.5767 0007494 214.9879 145.0870 15.31057669158222 KUZGTU 1 (RS47S) 1 57217U 23091AV 26126.94458766 .00009082 00000+0 32535-3 0 9992 2 57217 97.5082 191.0310 0009965 236.2266 123.8025 15.28935283158074 SONATE-2 1 59112U 24043Q 26126.88230002 .00029927 00000+0 43292-3 0 9992 2 59112 97.5498 274.8559 0006318 357.6744 2.4480 15.55850718121463 MESAT1 1 60209U 24125G 26126.56567548 .00041237 00000+0 52675-3 0 9998 2 60209 97.2345 343.2239 0010212 21.2713 338.8966 15.59090455103074 OOV-CUBE (TUBSAT-30) 1 60240U 24128F 26126.93137338 .00002145 00000+0 17213-3 0 9991 2 60240 61.9965 9.4075 0049514 124.6962 235.8809 15.02567751 99910 COLIBRI-S (RS67S) 1 61746U 24199M 26126.91820660 .00017551 00000+0 36004-3 0 9992 2 61746 97.3046 0.4392 0010609 75.8301 284.4126 15.46042822131032 HORS 3 (RS81S) 1 61753U 24199U 26126.92941986 .00028529 00000+0 46974-3 0 9990 2 61753 97.3033 2.0260 0008852 81.3993 278.8262 15.52258212131154 HORS 4 (RS82S) 1 61754U 24199V 26126.93756806 .00036003 00000+0 51527-3 0 9993 2 61754 97.2983 2.9991 0008046 78.5379 281.6779 15.56087297131229 HORIZON (RS59S) 1 61757U 24199Y 26126.93176811 .00695156 23216-3 11668-2 0 9997 2 61757 97.2795 9.3424 0004465 149.9256 210.2281 16.02860100131638 ARCTICSAT 1 (RS74S) 1 61762U 24199AD 26126.89808329 .00188488 00000+0 89492-3 0 9992 2 61762 97.2924 8.0375 0004545 89.9639 270.2150 15.82416207131549 SIT-2086 1 61764U 24199AF 26126.92226489 .00018828 00000+0 33116-3 0 9991 2 61764 97.3002 2.6332 0008502 66.2525 293.9618 15.50484652128036 HYPERVIEW 1G (RS66S) 1 61772U 24199AP 26126.91164644 .00077802 00000+0 72495-3 0 9993 2 61772 97.2952 4.8377 0008326 79.6578 280.5621 15.67072087128197 ALTAIR (RS65S) 1 61779U 24199AW 26126.89074422 .00008585 00000+0 24427-3 0 9995 2 61779 97.3079 356.5268 0014845 94.7893 265.5047 15.36263061130774 ASRTU-1 (AO-123) 1 61781U 24199AY 26126.91002282 .00006730 00000+0 19930-3 0 9999 2 61781 97.3051 355.9598 0015922 96.7876 263.5180 15.35076682127598 TUSUR GO (RS78S) 1 61782U 24199AZ 26126.92283650 .06698915 24578-5 11300-2 0 9993 2 61782 97.2729 8.6700 0008386 236.8511 123.1981 16.33156919128453 SAMSAT-IONOSPHERE (RS7*) 1 61784U 24199BB 26126.89517275 .00033524 00000+0 51312-3 0 9993 2 61784 97.3006 1.9114 0011099 80.2043 280.0464 15.54228810131146 RTU MIREA 1 (RS51S) 1 61785U 24199BC 26126.93589994 .00041603 00000+0 57575-3 0 9990 2 61785 97.2996 2.5985 0011000 78.1804 282.0685 15.56935147128042 TEVEL2-4 1 63213U 25052D 26126.69086007 .00015393 00000+0 48192-3 0 9999 2 63213 97.3942 23.0522 0000766 194.8848 165.2372 15.33197233 63750 TEVEL2-5 1 63214U 25052E 26126.64171870 .00015497 00000+0 48754-3 0 9997 2 63214 97.3939 22.9620 0000776 195.7967 164.3251 15.33042552 63745 TEVEL2-6 1 63215U 25052F 26126.65304130 .00015759 00000+0 49629-3 0 9999 2 63215 97.3944 22.9583 0000824 208.0235 152.0963 15.33005078 63746 TEVEL2-1 1 63217U 25052H 26126.66839296 .00015466 00000+0 49454-3 0 9999 2 63217 97.3920 22.6454 0000443 264.1902 95.9289 15.32520912 63730 TEVEL2-3 1 63218U 25052J 26126.59911419 .00015584 00000+0 49759-3 0 9999 2 63218 97.3919 22.5931 0000510 268.2723 91.8461 15.32565308 63723 TEVEL2-2 1 63219U 25052K 26126.66889643 .00015227 00000+0 48688-3 0 9995 2 63219 97.3920 22.6471 0000494 269.7178 90.4007 15.32526459 63733 TEVEL2-9 1 63237U 25052AD 26125.67911195 .00017826 00000+0 60369-3 0 9990 2 63237 97.3982 21.1221 0004278 302.6918 57.3910 15.30631391 63523 TEVEL2-7 1 63238U 25052AE 26126.69312019 .00011715 00000+0 40080-3 0 9993 2 63238 97.3982 22.0652 0004319 297.8273 62.2530 15.30397392 63676 TEVEL2-8 1 63239U 25052AF 26126.24320891 .00015003 00000+0 51282-3 0 9992 2 63239 97.3983 21.5951 0004304 300.9661 59.1156 15.30368656 63608 HADES-ICM 1 63492U 25052BN 26125.23154520 .00757455 00000+0 29228-2 0 9993 2 63492 97.3784 28.6812 0006451 159.5468 200.6062 15.85436039 64005 INNOSAT 16 (RS92S7) 1 64878U 25155C 26126.93242141 .00005508 00000+0 22332-3 0 9996 2 64878 97.4546 94.2146 0009666 342.0022 18.0872 15.25011637 74385 GEOSCAN 6 (RS92S6) 1 64879U 25155D 26126.97150219 .00009363 00000+0 33105-3 0 9998 2 64879 97.4540 95.3976 0006591 338.7946 21.3020 15.29378052 74466 GEOSCAN 1 (RS92S1) 1 64880U 25155E 26126.92366700 .00010101 00000+0 35114-3 0 9993 2 64880 97.4538 95.4639 0006525 339.5208 20.5770 15.29908524 74465 239ALFEROV (RS61S) 1 64881U 25155F 26126.94860548 .00012130 00000+0 39664-3 0 9993 2 64881 97.4539 95.9202 0005936 340.5375 19.5639 15.31847333 74498 GEOSCAN 2 (RS92S2) 1 64890U 25155Q 26126.92477075 .00009790 00000+0 33755-3 0 9993 2 64890 97.4537 95.6009 0005422 325.0319 35.0564 15.30192922 74478 GEOSCAN 5 (RS92S5) 1 64891U 25155R 26126.94621308 .00012166 00000+0 39386-3 0 9993 2 64891 97.4532 96.0394 0005162 351.8556 8.2601 15.32171108 74500 GEOSCAN 4 (RS92S4) 1 64892U 25155S 26126.93419523 .00012682 00000+0 40879-3 0 9999 2 64892 97.4535 96.0649 0005194 352.8473 7.2694 15.32300241 74504 GEOSCAN 3 (RS92S3) 1 64893U 25155T 26126.91935548 .00015593 00000+0 47546-3 0 9990 2 64893 97.4525 96.3691 0004893 356.3452 3.7753 15.34028134 74524 INNOSAT 3 (RS92S0) 1 64894U 25155U 26126.91965941 .00029621 00000+0 71715-3 0 9993 2 64894 97.4483 97.5285 0003775 11.1724 348.9605 15.41055745 74601 KNACKSAT-2 1 67683U 98067XZ 26126.33918814 .00035738 00000+0 49824-3 0 9999 2 67683 51.6273 144.3710 0012719 43.0910 317.1075 15.56471135 13751